Time,TemperatureF,DewpointF,PressureIn,WindDirection,WindDirectionDegrees,WindSpeedMPH,WindSpeedGustMPH,Humidity,HourlyPrecipIn,Conditions,Clouds,dailyrainin,SoftwareType,DateUTC
2013-03-09 00:10:00,39.5,25.0,30.30,NE,48,2.0,3.0,56,0.00,,,0.00,weatherlink.com 1.10,2013-03-09 05:10:00,
2013-03-09 00:25:00,39.0,24.0,30.31,NE,48,0.0,1.0,56,0.00,,,0.00,weatherlink.com 1.10,2013-03-09 05:25:00,
2013-03-09 00:40:00,38.3,25.0,30.31,NE,47,1.0,2.0,58,0.00,,,0.00,weatherlink.com 1.10,2013-03-09 05:40:00,
2013-03-09 00:55:00,38.0,24.0,30.32,NE,47,0.0,1.0,58,0.00,,,0.00,weatherlink.com 1.10,2013-03-09 05:55:00,
2013-03-09 01:10:00,38.3,25.0,30.32,NE,51,1.0,4.0,58,0.00,,,0.00,weatherlink.com 1.10,2013-03-09 06:10:00,
2013-03-09 01:25:00,38.3,25.0,30.31,NE,38,0.0,3.0,58,0.00,,,0.00,weatherlink.com 1.10,2013-03-09 06:25:00,
2013-03-09 01:40:00,37.4,24.0,30.31,NNE,26,0.0,2.0,59,0.00,,,0.00,weatherlink.com 1.10,2013-03-09 06:40:00,
2013-03-09 01:55:00,36.9,24.0,30.32,NNE,31,0.0,2.0,61,0.00,,,0.00,weatherlink.com 1.10,2013-03-09 06:55:00,
2013-03-09 02:10:00,36.0,24.0,30.31,NNE,31,0.0,1.0,63,0.00,,,0.00,weatherlink.com 1.10,2013-03-09 07:10:00,
2013-03-09 02:25:00,35.8,24.0,30.32,NNE,31,0.0,0.0,63,0.00,,,0.00,weatherlink.com 1.10,2013-03-09 07:25:00,
2013-03-09 02:40:00,35.3,24.0,30.31,NNE,31,0.0,0.0,64,0.00,,,0.00,weatherlink.com 1.10,2013-03-09 07:40:00,
2013-03-09 02:55:00,34.9,24.0,30.30,NNE,31,0.0,2.0,64,0.00,,,0.00,weatherlink.com 1.10,2013-03-09 07:55:00,
2013-03-09 03:10:00,34.6,24.0,30.30,NNE,31,0.0,1.0,65,0.00,,,0.00,weatherlink.com 1.10,2013-03-09 08:10:00,
2013-03-09 03:25:00,34.9,24.0,30.30,NNE,31,0.0,1.0,65,0.00,,,0.00,weatherlink.com 1.10,2013-03-09 08:25:00,
2013-03-09 03:40:00,35.3,24.0,30.29,NNE,31,1.0,2.0,64,0.00,,,0.00,weatherlink.com 1.10,2013-03-09 08:40:00,
2013-03-09 03:55:00,34.9,24.0,30.29,NNE,29,0.0,1.0,65,0.00,,,0.00,weatherlink.com 1.10,2013-03-09 08:55:00,
2013-03-09 04:10:00,34.3,24.0,30.30,NNE,27,0.0,2.0,66,0.00,,,0.00,weatherlink.com 1.10,2013-03-09 09:10:00,
2013-03-09 04:25:00,33.8,24.0,30.30,NNE,27,0.0,3.0,67,0.00,,,0.00,weatherlink.com 1.10,2013-03-09 09:25:00,
2013-03-09 04:40:00,34.3,24.0,30.30,NNE,24,1.0,5.0,66,0.00,,,0.00,weatherlink.com 1.10,2013-03-09 09:40:00,
2013-03-09 04:55:00,32.9,23.0,30.30,NNE,23,0.0,0.0,68,0.00,,,0.00,weatherlink.com 1.10,2013-03-09 09:55:00,
2013-03-09 05:10:00,32.0,23.0,30.30,NNE,23,0.0,0.0,70,0.00,,,0.00,weatherlink.com 1.10,2013-03-09 10:10:00,
2013-03-09 05:25:00,31.8,24.0,30.30,NNE,23,0.0,1.0,72,0.00,,,0.00,weatherlink.com 1.10,2013-03-09 10:25:00,
2013-03-09 05:40:00,32.1,24.0,30.31,NNE,23,0.0,2.0,72,0.00,,,0.00,weatherlink.com 1.10,2013-03-09 10:40:00,
2013-03-09 05:55:00,32.9,24.0,30.31,NNE,23,0.0,0.0,69,0.00,,,0.00,weatherlink.com 1.10,2013-03-09 10:55:00,
2013-03-09 06:10:00,32.6,24.0,30.31,NNE,24,0.0,1.0,70,0.00,,,0.00,weatherlink.com 1.10,2013-03-09 11:10:00,
2013-03-09 06:25:00,31.5,23.0,30.32,NNE,23,0.0,0.0,71,0.00,,,0.00,weatherlink.com 1.10,2013-03-09 11:25:00,
2013-03-09 06:40:00,30.4,23.0,30.32,NNE,23,0.0,0.0,73,0.00,,,0.00,weatherlink.com 1.10,2013-03-09 11:40:00,
2013-03-09 06:56:00,29.2,23.0,30.33,NNE,23,0.0,1.0,77,0.00,,,0.00,weatherlink.com 1.10,2013-03-09 11:56:00,
2013-03-09 07:11:00,29.0,23.0,30.34,NNE,23,0.0,0.0,78,0.00,,,0.00,weatherlink.com 1.10,2013-03-09 12:11:00,
2013-03-09 07:26:00,30.0,24.0,30.34,NNE,23,0.0,1.0,77,0.00,,,0.00,weatherlink.com 1.10,2013-03-09 12:26:00,
2013-03-09 07:41:00,31.3,24.0,30.35,NNE,23,0.0,0.0,75,0.00,,,0.00,weatherlink.com 1.10,2013-03-09 12:41:00,
2013-03-09 07:56:00,32.7,25.0,30.35,NNE,23,0.0,0.0,73,0.00,,,0.00,weatherlink.com 1.10,2013-03-09 12:56:00,
2013-03-09 08:11:00,35.2,26.0,30.36,NNE,23,1.0,2.0,68,0.00,,,0.00,weatherlink.com 1.10,2013-03-09 13:11:00,
2013-03-09 08:26:00,37.7,26.0,30.36,NE,43,2.0,2.0,63,0.00,,,0.00,weatherlink.com 1.10,2013-03-09 13:26:00,
2013-03-09 08:41:00,39.6,26.0,30.36,NE,52,0.0,4.0,59,0.00,,,0.00,weatherlink.com 1.10,2013-03-09 13:41:00,
2013-03-09 08:56:00,41.7,27.0,30.37,NNE,29,0.0,3.0,57,0.00,,,0.00,weatherlink.com 1.10,2013-03-09 13:56:00,
2013-03-09 09:11:00,43.8,26.0,30.37,NNE,19,2.0,3.0,50,0.00,,,0.00,weatherlink.com 1.10,2013-03-09 14:11:00,
2013-03-09 09:26:00,45.8,26.0,30.37,ESE,109,1.0,3.0,47,0.00,,,0.00,weatherlink.com 1.10,2013-03-09 14:26:00,
2013-03-09 09:41:00,46.7,27.0,30.37,ESE,110,1.0,3.0,46,0.00,,,0.00,weatherlink.com 1.10,2013-03-09 14:41:00,
2013-03-09 09:56:00,47.5,27.0,30.36,SSW,197,1.0,4.0,45,0.00,,,0.00,weatherlink.com 1.10,2013-03-09 14:56:00,
2013-03-09 10:11:00,48.7,26.0,30.36,SE,125,1.0,5.0,42,0.00,,,0.00,weatherlink.com 1.10,2013-03-09 15:11:00,
2013-03-09 10:26:00,48.4,27.0,30.36,South,185,0.0,7.0,44,0.00,,,0.00,weatherlink.com 1.10,2013-03-09 15:26:00,
2013-03-09 10:41:00,48.8,27.0,30.35,South,180,3.0,5.0,43,0.00,,,0.00,weatherlink.com 1.10,2013-03-09 15:41:00,
2013-03-09 10:56:00,50.2,28.0,30.35,NW,307,1.0,6.0,42,0.00,,,0.00,weatherlink.com 1.10,2013-03-09 15:56:00,
2013-03-09 11:11:00,51.0,28.0,30.35,NNW,334,1.0,5.0,42,0.00,,,0.00,weatherlink.com 1.10,2013-03-09 16:11:00,
2013-03-09 11:26:00,51.3,28.0,30.35,SW,226,2.0,6.0,41,0.00,,,0.00,weatherlink.com 1.10,2013-03-09 16:26:00,
2013-03-09 11:41:00,52.2,27.0,30.34,West,280,3.0,6.0,38,0.00,,,0.00,weatherlink.com 1.10,2013-03-09 16:41:00,
2013-03-09 11:56:00,53.6,28.0,30.34,SW,231,5.0,5.0,37,0.00,,,0.00,weatherlink.com 1.10,2013-03-09 16:56:00,
2013-03-09 12:11:00,54.3,30.0,30.33,SW,235,2.0,5.0,39,0.00,,,0.00,weatherlink.com 1.10,2013-03-09 17:11:00,
2013-03-09 12:26:00,55.1,28.0,30.33,SE,141,2.0,7.0,35,0.00,,,0.00,weatherlink.com 1.10,2013-03-09 17:26:00,
2013-03-09 12:41:00,55.1,26.0,30.32,SSW,206,1.0,7.0,33,0.00,,,0.00,weatherlink.com 1.10,2013-03-09 17:41:00,
2013-03-09 12:57:00,56.4,27.0,30.32,South,191,6.0,8.0,33,0.00,,,0.00,weatherlink.com 1.10,2013-03-09 17:57:00,
2013-03-09 13:12:00,56.2,27.0,30.31,SE,135,1.0,7.0,32,0.00,,,0.00,weatherlink.com 1.10,2013-03-09 18:12:00,
2013-03-09 13:27:00,58.6,28.0,30.30,NE,45,3.0,4.0,31,0.00,,,0.00,weatherlink.com 1.10,2013-03-09 18:27:00,
2013-03-09 13:42:00,58.9,28.0,30.29,South,189,5.0,7.0,31,0.00,,,0.00,weatherlink.com 1.10,2013-03-09 18:42:00,
2013-03-09 13:57:00,58.6,29.0,30.28,NE,51,2.0,6.0,32,0.00,,,0.00,weatherlink.com 1.10,2013-03-09 18:57:00,
2013-03-09 14:12:00,59.8,29.0,30.27,West,278,3.0,6.0,31,0.00,,,0.00,weatherlink.com 1.10,2013-03-09 19:12:00,
2013-03-09 14:27:00,60.5,28.0,30.27,SE,125,3.0,9.0,29,0.00,,,0.00,weatherlink.com 1.10,2013-03-09 19:27:00,
2013-03-09 14:42:00,60.4,29.0,30.26,SSW,201,3.0,8.0,31,0.00,,,0.00,weatherlink.com 1.10,2013-03-09 19:42:00,
2013-03-09 14:57:00,60.8,30.0,30.25,SSW,201,3.0,7.0,31,0.00,,,0.00,weatherlink.com 1.10,2013-03-09 19:57:00,
2013-03-09 15:12:00,62.2,29.0,30.25,South,181,5.0,8.0,28,0.00,,,0.00,weatherlink.com 1.10,2013-03-09 20:12:00,
2013-03-09 15:27:00,61.9,28.0,30.25,ESE,118,2.0,5.0,28,0.00,,,0.00,weatherlink.com 1.10,2013-03-09 20:27:00,
2013-03-09 15:42:00,61.9,28.0,30.24,WSW,245,2.0,7.0,28,0.00,,,0.00,weatherlink.com 1.10,2013-03-09 20:42:00,
2013-03-09 15:57:00,62.3,29.0,30.24,SSW,201,4.0,5.0,29,0.00,,,0.00,weatherlink.com 1.10,2013-03-09 20:57:00,
2013-03-09 16:12:00,63.0,28.0,30.24,South,171,2.0,5.0,27,0.00,,,0.00,weatherlink.com 1.10,2013-03-09 21:12:00,
2013-03-09 16:27:00,63.0,28.0,30.24,ESE,120,3.0,5.0,27,0.00,,,0.00,weatherlink.com 1.10,2013-03-09 21:27:00,
2013-03-09 16:42:00,63.1,29.0,30.23,SSE,154,2.0,6.0,28,0.00,,,0.00,weatherlink.com 1.10,2013-03-09 21:42:00,
2013-03-09 16:57:00,62.2,29.0,30.24,SSW,206,4.0,7.0,29,0.00,,,0.00,weatherlink.com 1.10,2013-03-09 21:57:00,
2013-03-09 17:12:00,62.1,29.0,30.24,SSE,148,2.0,6.0,29,0.00,,,0.00,weatherlink.com 1.10,2013-03-09 22:12:00,
2013-03-09 17:27:00,61.8,28.0,30.24,SSW,195,3.0,6.0,28,0.00,,,0.00,weatherlink.com 1.10,2013-03-09 22:27:00,
2013-03-09 17:42:00,61.4,29.0,30.24,SSW,198,4.0,5.0,29,0.00,,,0.00,weatherlink.com 1.10,2013-03-09 22:42:00,
2013-03-09 17:57:00,60.4,29.0,30.24,South,185,2.0,5.0,30,0.00,,,0.00,weatherlink.com 1.10,2013-03-09 22:57:00,
2013-03-09 18:12:00,59.5,29.0,30.25,South,185,0.0,4.0,31,0.00,,,0.00,weatherlink.com 1.10,2013-03-09 23:12:00,
2013-03-09 18:27:00,58.9,28.0,30.25,South,186,1.0,2.0,31,0.00,,,0.00,weatherlink.com 1.10,2013-03-09 23:27:00,
2013-03-09 18:42:00,58.6,27.0,30.24,South,185,1.0,3.0,30,0.00,,,0.00,weatherlink.com 1.10,2013-03-09 23:42:00,
2013-03-09 18:57:00,58.1,27.0,30.24,South,185,1.0,2.0,31,0.00,,,0.00,weatherlink.com 1.10,2013-03-09 23:57:00,
2013-03-09 19:12:00,57.4,28.0,30.25,South,185,0.0,2.0,33,0.00,,,0.00,weatherlink.com 1.10,2013-03-10 00:12:00,
2013-03-09 19:27:00,56.0,29.0,30.25,South,185,0.0,1.0,35,0.00,,,0.00,weatherlink.com 1.10,2013-03-10 00:27:00,
2013-03-09 19:42:00,54.7,28.0,30.25,South,185,0.0,0.0,36,0.00,,,0.00,weatherlink.com 1.10,2013-03-10 00:42:00,
2013-03-09 19:57:00,53.9,29.0,30.25,South,185,0.0,0.0,39,0.00,,,0.00,weatherlink.com 1.10,2013-03-10 00:57:00,
2013-03-09 20:12:00,52.7,28.0,30.25,South,186,0.0,2.0,39,0.00,,,0.00,weatherlink.com 1.10,2013-03-10 01:12:00,
2013-03-09 20:27:00,52.8,31.0,30.26,South,185,0.0,1.0,43,0.00,,,0.00,weatherlink.com 1.10,2013-03-10 01:27:00,
2013-03-09 20:42:00,51.2,31.0,30.26,ESE,122,0.0,2.0,47,0.00,,,0.00,weatherlink.com 1.10,2013-03-10 01:42:00,
2013-03-09 20:57:00,50.8,32.0,30.27,ESE,122,0.0,1.0,49,0.00,,,0.00,weatherlink.com 1.10,2013-03-10 01:57:00,
2013-03-09 21:12:00,50.6,32.0,30.27,ESE,122,0.0,0.0,49,0.00,,,0.00,weatherlink.com 1.10,2013-03-10 02:12:00,
2013-03-09 21:27:00,50.5,31.0,30.27,ESE,122,0.0,1.0,48,0.00,,,0.00,weatherlink.com 1.10,2013-03-10 02:27:00,
2013-03-09 21:42:00,50.6,30.0,30.27,ESE,122,0.0,1.0,46,0.00,,,0.00,weatherlink.com 1.10,2013-03-10 02:42:00,
2013-03-09 21:57:00,51.3,30.0,30.28,ESE,122,0.0,1.0,44,0.00,,,0.00,weatherlink.com 1.10,2013-03-10 02:57:00,
2013-03-09 22:12:00,51.1,30.0,30.28,ESE,122,0.0,0.0,44,0.00,,,0.00,weatherlink.com 1.10,2013-03-10 03:12:00,
2013-03-09 22:27:00,51.4,34.0,30.28,ESE,122,0.0,0.0,51,0.00,,,0.00,weatherlink.com 1.10,2013-03-10 03:27:00,
2013-03-09 22:42:00,50.9,33.0,30.29,ESE,122,0.0,1.0,50,0.00,,,0.00,weatherlink.com 1.10,2013-03-10 03:42:00,
2013-03-09 22:57:00,51.0,31.0,30.28,ESE,122,0.0,1.0,47,0.00,,,0.00,weatherlink.com 1.10,2013-03-10 03:57:00,
2013-03-09 23:12:00,51.3,30.0,30.28,ESE,122,0.0,0.0,44,0.00,,,0.00,weatherlink.com 1.10,2013-03-10 04:12:00,
2013-03-09 23:27:00,51.3,32.0,30.28,ESE,122,0.0,0.0,48,0.00,,,0.00,weatherlink.com 1.10,2013-03-10 04:27:00,
2013-03-09 23:42:00,49.5,33.0,30.28,ESE,114,1.0,3.0,53,0.00,,,0.00,weatherlink.com 1.10,2013-03-10 04:42:00,
2013-03-09 23:57:00,49.1,31.0,30.27,ESE,114,2.0,3.0,51,0.00,,,0.00,weatherlink.com 1.10,2013-03-10 04:57:00,